Location: Fernhill
(41.0167°S, 175.6333°E)
Time: 16:15:08
(UTC+00:00)

Cosmos 1833 Rocket - Pass Details

Date: 21 February 2026
Orbit: 832 x 837 km, 71.0° (Epoch: 8 March)

Event Time Altitude Azimuth Distance (km) Brightness Sun altitude
Exits shadow 13:47:30 16° 222° (SW) 2,101 4.9 -35.6°
Drops below altitude 10° 13:50:26 10° 191° (SSW) 2,479 5.7 -35.4°
Sets 13:53:59 0° 169° (S) 3,421 6.8 -35.1°
